Location: Unspecified
(41.5000°N, 0.0000°E)
Time: 13:30:09
(UTC+00:00)

Courier 1B Rocket - Pass Details

Date: 29 June 2019
Orbit: 921 x 1202 km, 28.2° (Epoch: 17 July)

Event Time Altitude Azimuth Distance (km) Brightness Sun altitude
Rises 02:15:56 0° 238° (WSW) 4,042 - -18.3°
Reaches altitude 10° 02:19:17 10° 227° (SW) 3,047 - -18.0°
Exits shadow 02:23:35 24° 195° (SSW) 2,123 6.2 -17.6°
Maximum altitude 02:25:19 27° 173° (S) 2,002 6.2 -17.4°
Drops below altitude 10° 02:31:04 10° 119° (ESE) 2,889 7.5 -16.8°
Sets 02:34:09 0° 108° (ESE) 3,795 8.3 -16.4°
